User: anonymous   Login
Location: Unspecified
(0.0000°N, 0.0000°E)
Time: 00:03:18
(UTC+02:00)
Language:

Cosmos 1943 Rocket - Orbit

View from above orbital plane
View from above orbital plane
View from above satellite
View from above satellite

Ground track
Ground track

The orbit data is extracted from the following two-line orbital elements,

1 19120U 88039B   15183.16510459 -.00000111  00000-0 -29892-4 0  9999
2 19120 071.0150 037.7737 0022957 210.8700 149.1077 14.19109103404800
Epoch (UTC): 02 July 2015 03:57:45
Eccentricity: 0.0022957
inclination: 71.0150°
perigee height: 812 km
apogee height: 845 km
right ascension of ascending node: 37.7737°
argument of perigee: 210.8700°
revolutions per day: 14.19109103
mean anomaly at epoch: 149.1077°
orbit number at epoch: 40480

The dashed part of the orbit path shows where the satellite is in the earth's shadow,  

DLR